{"data":{"norad_id":59566,"intl_designator":"2024-076C","name":"STARLINK-31332","alt_names":[],"object_type":"PAYLOAD","status":"ACTIVE","operator":null,"country":"US","launch_date":"2024-04-23","launch_site_code":"AFETR","launch_vehicle":null,"mission":null,"orbit_class":"UNKNOWN","rcs_meters":null,"size_class":null,"mass_kg":null,"dimensions":null,"purposes":["comms"],"wikipedia_slug":null,"has_3d_model":false,"image_url":null,"decayed_at":null,"tle_current":{"epoch":"2026-09-21T12:16:23.586240Z","epoch_age_seconds":80874,"freshness":"FRESH","line1":"1 59566U 24076C   26264.51138410 -.00000021  00000+0  87623-5 0  9997","line2":"2 59566  43.0023 342.8808 0002358 285.0745  74.9846 15.27570814136454","mean_motion":15.27570814,"eccentricity":0.0002358,"inclination_deg":43.0023,"raan_deg":342.8808,"arg_perigee_deg":285.0745,"mean_anomaly_deg":74.9846,"bstar":8.7623e-6,"rev_number":13645,"period_min":94.267315583839,"perigee_km":481.4587281987,"apogee_km":484.69447653358,"semimajor_km":6861.2136023661,"source":"CELESTRAK","updated_at":"2026-09-22T09:00:49.000381Z"}}}